sat.trackr.live / text

‹ back to catalog

STARLINK-2725

NORAD 48681 · 2021-044AV

PAYLOAD ACTIVE UNKNOWN

§ Identity

Operator
Country
US
Launch date
2021-05-26
Launch site
AFETR
Launch vehicle
Mass (kg)
RCS (m²)

Purposes: comms

External: N2YO · Heavens-Above · Gunter

§ Orbital elements

Epoch: 2026-09-12T01:43:43.200192Z

Period
94.01 min
Inclination
53.1590°
Eccentricity
0.0001351
Mean motion
15.31696210 rev/d
Perigee alt
469.8 km
Apogee alt
471.7 km
Semi-major
6,848.9 km
B*
1.6594e-4
RAAN
288.2453°
Arg perigee
80.1302°
Mean anomaly
279.9851°
Rev number
29,291

§ Raw data

STARLINK-27251 48681U 21044AV  26255.07202778  .00004787  00000+0  16594-3 0  99942 48681  53.1590 288.2453 0001351  80.1302 279.9851 15.31696210292916

JSON: /api/v1/satellites/48681 · /tle

For live sub-satellite position, see the globe view (requires WebGL).

§ Visibility from observer

Set your observer location to see the next 7 days of passes ≥ 10°. The values pass through the URL so the page stays shareable.

No JS? Fill the form by hand. The geolocation button needs JavaScript.